Weather History for Newport News, VA

Change the Weather History Date:

Monday, December 17, 2012

  Actual Average Record
Temperature  
Mean Temperature 58 °F -  
Max Temperature 61 °F 50 °F 71 °F (1971)
Min Temperature 55 °F 35 °F 19 °F (1972)
Degree Days  
Heating Degree Days 7    
Growing Degree Days 8 (Base 50)    
Moisture  
Dew Point 54 °F    
Average Humidity 83    
Maximum Humidity 88    
Minimum Humidity 75    
Precipitation  
Precipitation 0.21 in - - ()
Sea Level Pressure  
Sea Level Pressure 29.78 in    
Wind  
Wind Speed 5 mph (SSW)    
Max Wind Speed 16 mph    
Max Gust Speed -    
Visibility 6 miles    
Events Rain    
Averages and records for this station are not official NWS values.
T = Trace of Precipitation, MM = Missing Value Source: NWS Daily Summary

Daily Weather History Graph

Daily Weather History Graph

Search for Another Location

Airport:

Trip Planner

Search our weather history database for the weather conditions in past years. The results will help you decide how hot, cold, wet, or windy it might be!

Date:

Astronomy

Dec. 17, 2012 Rise Set
Actual Time 7:13 AM EST 4:50 PM EST
Civil Twilight 6:44 AM EST 5:19 PM EST
Nautical Twilight 6:12 AM EST 5:52 PM EST
Astronomical Twilight 5:40 AM EST 6:24 PM EST
Moon 10:26 AM EST (12/17) 10:03 PM EST (12/17)
Length of Visible Light 10h 35m
Length of Day
9h 36m
Waxing Crescent, 24% of the Moon is Illuminated
Dec 17
Waxing Crescent
Dec 20
First Quarter
Dec 28
Full
Jan 4
Last Quarter
Jan 11
New

Hourly Weather History & Observations

Time (EST) Temp. Dew Point Humidity Pressure Visibility Wind Dir Wind Speed Gust Speed Precip Events Conditions
12:54 AM 57.9 °F 54.0 °F 87% 29.88 in 4.0 mi SW 5.8 mph - 0.03 in Rain Light Rain
1:54 AM 57.9 °F 54.0 °F 87% 29.88 in 3.0 mi SW 4.6 mph - 0.07 in Rain Light Rain
2:54 AM 57.9 °F 54.0 °F 87% 29.88 in 4.0 mi SW 5.8 mph - 0.08 in Rain Light Rain
3:00 AM 57.2 °F 53.6 °F 88% 29.87 in 4.0 mi SW 4.6 mph - 0.00 in Rain Light Rain
3:54 AM 57.0 °F 52.0 °F 83% 29.83 in 3.0 mi Calm Calm - 0.01 in   Haze
4:01 AM 55.4 °F 51.8 °F 88% 29.83 in 2.0 mi South 5.8 mph - N/A   Overcast
4:12 AM 57.2 °F 53.6 °F 88% 29.81 in 5.0 mi South 4.6 mph - N/A   Overcast
4:42 AM 57.2 °F 53.6 °F 88% 29.79 in 6.0 mi South 8.1 mph - 0.00 in Rain Light Rain
4:54 AM 57.9 °F 54.0 °F 87% 29.79 in 7.0 mi South 6.9 mph - 0.00 in Rain Light Rain
5:07 AM 57.2 °F 53.6 °F 88% 29.80 in 7.0 mi SSW 5.8 mph - 0.00 in Rain Light Rain
5:50 AM 57.2 °F 53.6 °F 88% 29.81 in 6.0 mi SSW 4.6 mph - 0.01 in Rain Light Rain
5:54 AM 57.0 °F 53.1 °F 87% 29.81 in 6.0 mi SW 3.5 mph - 0.01 in Rain Light Rain
6:05 AM 57.2 °F 53.6 °F 88% 29.81 in 6.0 mi Calm Calm - 0.00 in   Overcast
6:54 AM 57.0 °F 53.1 °F 87% 29.81 in 4.0 mi Calm Calm - 0.00 in   Overcast
7:15 AM 57.2 °F 53.6 °F 88% 29.81 in 3.0 mi Calm Calm - 0.00 in Rain Light Rain
7:51 AM 57.2 °F 53.6 °F 88% 29.82 in 1.8 mi Calm Calm - 0.01 in Rain Light Rain
7:54 AM 57.0 °F 53.1 °F 87% 29.83 in 1.2 mi Calm Calm - 0.01 in Rain Light Rain
8:32 AM 57.2 °F 53.6 °F 88% 29.82 in 3.0 mi South 5.8 mph - 0.00 in   Overcast
8:54 AM 57.9 °F 54.0 °F 87% 29.83 in 4.0 mi Calm Calm - 0.00 in   Overcast
9:54 AM 59.0 °F 54.0 °F 83% 29.83 in 8.0 mi WNW 3.5 mph - N/A   Overcast
10:09 AM 59.0 °F 53.6 °F 82% 29.84 in 7.0 mi West 4.6 mph - N/A   Overcast
10:54 AM 61.0 °F 55.0 °F 81% 29.83 in 8.0 mi West 4.6 mph - N/A   Overcast
11:45 AM 60.8 °F 53.6 °F 77% 29.80 in 10.0 mi West 3.5 mph - N/A   Mostly Cloudy
11:54 AM 61.0 °F 54.0 °F 78% 29.80 in 10.0 mi NW 3.5 mph - N/A   Mostly Cloudy
12:03 PM 60.8 °F 53.6 °F 77% 29.80 in 10.0 mi WSW 3.5 mph - N/A   Mostly Cloudy
12:17 PM 60.8 °F 53.6 °F 77% 29.80 in 10.0 mi SW 3.5 mph - N/A   Mostly Cloudy
12:54 PM 61.0 °F 53.1 °F 75% 29.78 in 10.0 mi SW 3.5 mph - N/A   Mostly Cloudy
1:54 PM 61.0 °F 55.0 °F 81% 29.76 in 7.0 mi ENE 4.6 mph - N/A   Scattered Clouds
2:19 PM 60.8 °F 53.6 °F 77% 29.75 in 7.0 mi ENE 8.1 mph - N/A   Mostly Cloudy
2:34 PM 59.0 °F 53.6 °F 82% 29.74 in 6.0 mi East 6.9 mph - N/A   Haze
2:54 PM 59.0 °F 53.1 °F 81% 29.73 in 6.0 mi East 6.9 mph - N/A   Haze
3:54 PM 57.9 °F 53.1 °F 84% 29.75 in 5.0 mi SE 3.5 mph - N/A   Haze
4:54 PM 57.0 °F 52.0 °F 83% 29.75 in 4.0 mi East 4.6 mph - N/A   Haze
7:24 PM 57.2 °F 53.6 °F 88% 29.67 in 6.0 mi SSE 5.8 mph - N/A   Haze
7:54 PM 61.0 °F 55.0 °F 81% 29.66 in 10.0 mi South 16.1 mph - N/A   Scattered Clouds
8:54 PM 61.0 °F 55.0 °F 81% 29.63 in 10.0 mi South 13.8 mph - N/A   Partly Cloudy
9:50 PM 60.8 °F 55.4 °F 82% 29.63 in 10.0 mi SSW 9.2 mph - N/A   Mostly Cloudy
9:54 PM 61.0 °F 55.0 °F 81% 29.64 in 10.0 mi SSW 10.4 mph - N/A   Mostly Cloudy
10:09 PM 60.8 °F 53.6 °F 77% 29.64 in 10.0 mi SSW 9.2 mph - N/A   Scattered Clouds
10:54 PM 60.1 °F 54.0 °F 80% 29.64 in 10.0 mi SSW 11.5 mph - N/A   Scattered Clouds
11:54 PM 61.0 °F 53.1 °F 75% 29.62 in 10.0 mi SSW 11.5 mph - N/A   Overcast